| time (UTC) | temp C | wind direction | speed KPH | gust KPH | rain 1hr cm | rain 24hr cm | rain mn cm | humidity % | barometer mb |
| 20260507224135 | 13 | 314 | 4.8 | 11.3 | 0.00 | 0.48 | 0.13 | 36 | 1005.1 |
| 20260507223534 | 13 | 348 | 3.2 | 9.7 | 0.00 | 0.48 | 0.13 | 35 | 1005.0 |
| 20260507223034 | 14 | 301 | 4.8 | 16.1 | 0.00 | 0.48 | 0.13 | 36 | 1004.9 |
| 20260507222535 | 14 | 289 | 4.8 | 17.7 | 0.00 | 0.48 | 0.13 | 35 | 1004.9 |
| 20260507222037 | 15 | 320 | 3.2 | 17.7 | 0.00 | 0.48 | 0.13 | 34 | 1004.9 |
| 20260507221534 | 15 | 307 | 4.8 | 11.3 | 0.00 | 0.48 | 0.13 | 34 | 1004.9 |
| 20260507221033 | 15 | 327 | 4.8 | 12.9 | 0.00 | 0.48 | 0.13 | 33 | 1004.9 |
| 20260507220532 | 15 | 317 | 3.2 | 12.9 | 0.00 | 0.48 | 0.13 | 33 | 1004.8 |
| 20260507220035 | 15 | 294 | 6.4 | 14.5 | 0.00 | 0.48 | 0.13 | 32 | 1004.8 |
| 20260507215533 | 15 | 313 | 6.4 | 14.5 | 0.00 | 0.66 | 0.13 | 32 | 1004.7 |
| 20260507215034 | 15 | 287 | 8.0 | 14.5 | 0.00 | 0.66 | 0.13 | 33 | 1004.8 |
| 20260507214531 | 15 | 346 | 0.0 | 12.9 | 0.00 | 0.66 | 0.13 | 34 | 1004.8 |
| 20260507214033 | 15 | 271 | 1.6 | 12.9 | 0.00 | 0.66 | 0.13 | 33 | 1004.7 |
| 20260507213531 | 15 | 306 | 6.4 | 12.9 | 0.00 | 0.66 | 0.13 | 34 | 1004.7 |
| 20260507213030 | 15 | 276 | 4.8 | 14.5 | 0.00 | 0.66 | 0.13 | 32 | 1004.7 |
| 20260507212531 | 15 | 267 | 3.2 | 19.3 | 0.00 | 0.66 | 0.13 | 33 | 1004.6 |
| 20260507212029 | 15 | 236 | 6.4 | 17.7 | 0.00 | 0.66 | 0.13 | 36 | 1004.6 |
| 20260507211530 | 15 | 355 | 8.0 | 16.1 | 0.00 | 0.66 | 0.13 | 34 | 1004.6 |
| 20260507211029 | 15 | 320 | 3.2 | 9.7 | 0.00 | 0.66 | 0.13 | 35 | 1004.6 |
| 20260507210529 | 15 | 240 | 1.6 | 11.3 | 0.00 | 0.66 | 0.13 | 38 | 1004.5 |
| 20260507210042 | 15 | 184 | 3.2 | 11.3 | 0.00 | 0.66 | 0.13 | 35 | 1004.5 |
| 20260507205528 | 15 | 20 | 1.6 | 8.0 | 0.00 | 0.81 | 0.13 | 36 | 1004.4 |
| 20260507205027 | 15 | 309 | 0.0 | 11.3 | 0.00 | 0.81 | 0.13 | 34 | 1004.4 |
| 20260507204527 | 15 | 322 | 6.4 | 11.3 | 0.00 | 0.81 | 0.13 | 34 | 1004.4 |
| 20260507204030 | 15 | 288 | 1.6 | 8.0 | 0.00 | 0.81 | 0.13 | 39 | 1004.3 |
| 20260507203527 | 15 | 319 | 1.6 | 14.5 | 0.00 | 0.81 | 0.13 | 36 | 1004.3 |
| 20260507203027 | 15 | 248 | 4.8 | 14.5 | 0.00 | 0.81 | 0.13 | 37 | 1004.2 |
| 20260507202526 | 15 | 281 | 1.6 | 12.9 | 0.00 | 0.81 | 0.13 | 37 | 1004.3 |
| 20260507202128 | 15 | 331 | 4.8 | 11.3 | 0.00 | 0.81 | 0.13 | 34 | 1004.3 |
| 20260507201526 | 16 | 284 | 4.8 | 11.3 | 0.00 | 0.81 | 0.13 | 34 | 1004.2 |
| 20260507201027 | 16 | 296 | 1.6 | 12.9 | 0.00 | 0.81 | 0.13 | 35 | 1004.2 |
| 20260507200525 | 16 | 317 | 3.2 | 14.5 | 0.00 | 0.81 | 0.13 | 35 | 1004.2 |
| 20260507200027 | 16 | 310 | 6.4 | 14.5 | 0.00 | 0.81 | 0.13 | 33 | 1004.3 |
| 20260507195525 | 17 | 5 | 3.2 | 14.5 | 0.00 | 0.91 | 0.13 | 34 | 1004.2 |
| 20260507195024 | 17 | 305 | 6.4 | 11.3 | 0.00 | 0.91 | 0.13 | 34 | 1004.2 |
| 20260507194528 | 17 | 262 | 4.8 | 11.3 | 0.00 | 0.91 | 0.13 | 33 | 1004.2 |
| 20260507194023 | 17 | 308 | 4.8 | 14.5 | 0.00 | 0.91 | 0.13 | 32 | 1004.2 |
| 20260507193522 | 17 | 279 | 3.2 | 14.5 | 0.00 | 0.91 | 0.13 | 37 | 1004.3 |
| 20260507193025 | 16 | 284 | 3.2 | 12.9 | 0.00 | 0.91 | 0.13 | 33 | 1004.3 |
| 20260507192522 | 17 | 336 | 3.2 | 12.9 | 0.00 | 0.91 | 0.13 | 35 | 1004.4 |
| 20260507192023 | 16 | 343 | 4.8 | 12.9 | 0.00 | 0.91 | 0.13 | 37 | 1004.4 |
| 20260507191521 | 16 | 280 | 3.2 | 11.3 | 0.00 | 0.91 | 0.13 | 36 | 1004.4 |
| 20260507191021 | 16 | 267 | 3.2 | 8.0 | 0.00 | 0.91 | 0.13 | 34 | 1004.5 |
| 20260507190521 | 17 | 285 | 3.2 | 11.3 | 0.00 | 0.91 | 0.13 | 34 | 1004.6 |
| 20260507190023 | 17 | 302 | 4.8 | 17.7 | 0.00 | 0.91 | 0.13 | 32 | 1004.6 |
| 20260507185520 | 17 | 319 | 4.8 | 17.7 | 0.00 | 1.32 | 0.13 | 32 | 1004.5 |
| 20260507185025 | 17 | 275 | 4.8 | 12.9 | 0.00 | 1.32 | 0.13 | 31 | 1004.5 |
| 20260507184519 | 17 | 235 | 6.4 | 11.3 | 0.00 | 1.32 | 0.13 | 34 | 1004.5 |
| 20260507184019 | 17 | 265 | 6.4 | 12.9 | 0.00 | 1.32 | 0.13 | 34 | 1004.5 |
| 20260507183520 | 17 | 217 | 4.8 | 16.1 | 0.00 | 1.32 | 0.13 | 32 | 1004.4 |
| 20260507183024 | 17 | 245 | 6.4 | 14.5 | 0.00 | 1.32 | 0.13 | 35 | 1004.5 |
| 20260507182517 | 17 | 292 | 6.4 | 14.5 | 0.00 | 1.32 | 0.13 | 33 | 1004.6 |
| 20260507182016 | 17 | 205 | 3.2 | 9.7 | 0.00 | 1.32 | 0.13 | 36 | 1004.5 |
| 20260507181514 | 17 | 298 | 4.8 | 11.3 | 0.00 | 1.32 | 0.13 | 35 | 1004.6 |
| 20260507181015 | 16 | 315 | 4.8 | 14.5 | 0.00 | 1.32 | 0.13 | 45 | 1004.7 |
| 20260507180514 | 16 | 228 | 9.7 | 14.5 | 0.00 | 1.32 | 0.13 | 42 | 1004.8 |
| 20260507180016 | 16 | 294 | 6.4 | 12.9 | 0.00 | 1.35 | 0.13 | 49 | 1004.8 |
| 20260507175513 | 16 | 298 | 6.4 | 12.9 | 0.00 | 1.35 | 0.13 | 50 | 1004.7 |
| 20260507175014 | 15 | 298 | 6.4 | 11.3 | 0.00 | 1.35 | 0.13 | 52 | 1004.8 |
| 20260507174513 | 15 | 302 | 4.8 | 12.9 | 0.00 | 1.35 | 0.13 | 48 | 1004.8 |
| 20260507174013 | 15 | 288 | 6.4 | 12.9 | 0.00 | 1.35 | 0.13 | 47 | 1004.7 |
| 20260507173514 | 15 | 223 | 8.0 | 11.3 | 0.00 | 1.35 | 0.13 | 52 | 1004.8 |
| 20260507173012 | 15 | 207 | 3.2 | 12.9 | 0.00 | 1.35 | 0.13 | 49 | 1004.8 |
| 20260507172512 | 15 | 228 | 8.0 | 14.5 | 0.00 | 1.35 | 0.13 | 47 | 1004.8 |
| 20260507172011 | 16 | 282 | 4.8 | 14.5 | 0.00 | 1.35 | 0.13 | 47 | 1004.7 |
| 20260507171511 | 16 | 271 | 3.2 | 11.3 | 0.00 | 1.35 | 0.13 | 46 | 1004.6 |
| 20260507171010 | 16 | 207 | 1.6 | 11.3 | 0.00 | 1.35 | 0.13 | 47 | 1004.8 |
| 20260507170510 | 16 | 301 | 3.2 | 9.7 | 0.00 | 1.35 | 0.13 | 50 | 1004.8 |
| 20260507170012 | 15 | 225 | 3.2 | 8.0 | 0.00 | 1.35 | 0.13 | 53 | 1004.9 |
| 20260507165509 | 15 | 227 | 3.2 | 8.0 | 0.00 | 1.35 | 0.13 | 50 | 1004.9 |
| 20260507165009 | 15 | 296 | 3.2 | 11.3 | 0.00 | 1.35 | 0.13 | 49 | 1005.0 |
| 20260507164507 | 15 | 260 | 3.2 | 11.3 | 0.00 | 1.35 | 0.13 | 52 | 1005.1 |
| 20260507164007 | 15 | 277 | 1.6 | 11.3 | 0.00 | 1.35 | 0.13 | 53 | 1005.2 |
| 20260507163506 | 16 | 269 | 3.2 | 11.3 | 0.00 | 1.35 | 0.13 | 51 | 1005.2 |
| 20260507163006 | 16 | 279 | 3.2 | 9.7 | 0.00 | 1.35 | 0.13 | 47 | 1005.1 |
| 20260507162506 | 16 | 202 | 1.6 | 9.7 | 0.00 | 1.35 | 0.13 | 46 | 1005.1 |
| 20260507162007 | 16 | 223 | 1.6 | 11.3 | 0.00 | 1.35 | 0.13 | 46 | 1005.2 |
| 20260507161506 | 17 | 182 | 6.4 | 11.3 | 0.00 | 1.35 | 0.13 | 45 | 1005.4 |
| 20260507161005 | 16 | 315 | 1.6 | 9.7 | 0.00 | 1.35 | 0.13 | 50 | 1005.4 |
| 20260507160506 | 16 | 239 | 4.8 | 9.7 | 0.00 | 1.35 | 0.13 | 52 | 1005.4 |
| 20260507160007 | 15 | 321 | 1.6 | 11.3 | 0.00 | 1.35 | 0.13 | 53 | 1005.5 |
| 20260507155510 | 15 | 232 | 6.4 | 11.3 | 0.00 | 1.35 | 0.13 | 52 | 1005.5 |
| 20260507155006 | 15 | 299 | 4.8 | 8.0 | 0.00 | 1.35 | 0.13 | 50 | 1005.6 |
| 20260507154504 | 16 | 215 | 4.8 | 9.7 | 0.00 | 1.35 | 0.13 | 48 | 1005.7 |
| 20260507154004 | 15 | 259 | 3.2 | 8.0 | 0.00 | 1.35 | 0.13 | 47 | 1005.8 |
| 20260507153504 | 15 | 266 | 1.6 | 8.0 | 0.00 | 1.35 | 0.13 | 55 | 1005.8 |
| 20260507153006 | 15 | 260 | 1.6 | 9.7 | 0.00 | 1.35 | 0.13 | 51 | 1005.9 |
| 20260507152503 | 15 | 290 | 1.6 | 9.7 | 0.00 | 1.35 | 0.13 | 51 | 1005.9 |
| 20260507152006 | 16 | 346 | 1.6 | 14.5 | 0.00 | 1.35 | 0.13 | 49 | 1005.8 |
| 20260507151502 | 15 | 187 | 1.6 | 14.5 | 0.00 | 1.35 | 0.13 | 46 | 1005.9 |
| 20260507151001 | 16 | 256 | 1.6 | 11.3 | 0.00 | 1.35 | 0.13 | 47 | 1005.9 |
| 20260507150600 | 16 | 332 | 3.2 | 11.3 | 0.00 | 1.35 | 0.13 | 50 | 1005.8 |
| 20260507150100 | 15 | 288 | 1.6 | 8.0 | 0.00 | 1.35 | 0.13 | 53 | 1005.8 |
| 20260507145558 | 15 | 315 | 1.6 | 8.0 | 0.00 | 1.35 | 0.13 | 49 | 1005.9 |
| 20260507145056 | 15 | 277 | 1.6 | 9.7 | 0.00 | 1.35 | 0.13 | 55 | 1005.9 |
| 20260507144559 | 15 | 360 | 4.8 | 9.7 | 0.00 | 1.35 | 0.13 | 52 | 1006.0 |
| 20260507144055 | 15 | 327 | 4.8 | 9.7 | 0.00 | 1.35 | 0.13 | 52 | 1006.0 |
| 20260507143554 | 15 | 319 | 1.6 | 9.7 | 0.00 | 1.35 | 0.13 | 55 | 1006.0 |
| 20260507143102 | 15 | 277 | 3.2 | 9.7 | 0.00 | 1.35 | 0.13 | 55 | 1006.1 |
| 20260507142553 | 14 | 323 | 4.8 | 9.7 | 0.00 | 1.35 | 0.13 | 56 | 1006.1 |
| 20260507142053 | 15 | 305 | 3.2 | 9.7 | 0.00 | 1.35 | 0.13 | 56 | 1006.1 |
| 20260507141552 | 14 | 279 | 3.2 | 8.0 | 0.00 | 1.35 | 0.13 | 63 | 1006.2 |
| 20260507141051 | 14 | 31 | 1.6 | 9.7 | 0.00 | 1.35 | 0.13 | 58 | 1006.4 |
| 20260507140552 | 14 | 283 | 4.8 | 9.7 | 0.00 | 1.35 | 0.13 | 64 | 1006.4 |
| 20260507140048 | 13 | 286 | 1.6 | 11.3 | 0.00 | 1.35 | 0.13 | 63 | 1006.4 |
| 20260507135550 | 13 | 296 | 4.8 | 11.3 | 0.00 | 1.35 | 0.13 | 63 | 1006.5 |
| 20260507135047 | 13 | 351 | 6.4 | 11.3 | 0.00 | 1.35 | 0.13 | 65 | 1006.4 |
| 20260507134545 | 13 | 355 | 3.2 | 9.7 | 0.00 | 1.35 | 0.13 | 63 | 1006.5 |
| 20260507134045 | 13 | 327 | 3.2 | 9.7 | 0.00 | 1.35 | 0.13 | 66 | 1006.5 |
| 20260507133542 | 12 | 263 | 3.2 | 9.7 | 0.00 | 1.35 | 0.13 | 68 | 1006.6 |
| 20260507133042 | 12 | 244 | 4.8 | 11.3 | 0.00 | 1.35 | 0.13 | 69 | 1006.6 |
| 20260507132540 | 12 | 269 | 1.6 | 11.3 | 0.00 | 1.35 | 0.13 | 69 | 1006.7 |
| 20260507132039 | 12 | 275 | 3.2 | 11.3 | 0.00 | 1.35 | 0.13 | 68 | 1006.5 |
| 20260507131550 | 12 | 238 | 1.6 | 9.7 | 0.00 | 1.35 | 0.13 | 68 | 1006.6 |
| 20260507131038 | 12 | 34 | 1.6 | 11.3 | 0.00 | 1.35 | 0.13 | 68 | 1006.6 |
| 20260507130536 | 11 | 276 | 4.8 | 11.3 | 0.00 | 1.35 | 0.13 | 70 | 1006.7 |
| 20260507130040 | 11 | 287 | 0.0 | 9.7 | 0.00 | 1.35 | 0.13 | 71 | 1006.7 |
| 20260507125535 | 11 | 349 | 4.8 | 9.7 | 0.00 | 1.35 | 0.13 | 71 | 1006.6 |
| 20260507125033 | 11 | 288 | 3.2 | 9.7 | 0.00 | 1.35 | 0.13 | 71 | 1006.7 |
| 20260507124532 | 11 | 281 | 1.6 | 6.4 | 0.00 | 1.35 | 0.13 | 73 | 1006.7 |
| 20260507124031 | 11 | 256 | 3.2 | 8.0 | 0.00 | 1.35 | 0.13 | 73 | 1006.7 |
| 20260507123531 | 11 | 273 | 1.6 | 8.0 | 0.00 | 1.35 | 0.13 | 75 | 1006.7 |
| 20260507123031 | 11 | 280 | 1.6 | 9.7 | 0.00 | 1.35 | 0.13 | 74 | 1006.8 |
| 20260507122530 | 10 | 296 | 3.2 | 9.7 | 0.00 | 1.35 | 0.13 | 76 | 1006.8 |
| 20260507122030 | 10 | 337 | 0.0 | 8.0 | 0.00 | 1.35 | 0.13 | 76 | 1006.8 |
| 20260507121530 | 10 | 292 | 0.0 | 6.4 | 0.00 | 1.35 | 0.13 | 76 | 1006.9 |
| 20260507121030 | 10 | 334 | 1.6 | 11.3 | 0.00 | 1.35 | 0.13 | 78 | 1006.9 |
| 20260507120530 | 10 | 328 | 3.2 | 9.7 | 0.00 | 1.35 | 0.13 | 78 | 1006.9 |
| 20260507120029 | 10 | 321 | 0.0 | 6.4 | 0.00 | 1.35 | 0.13 | 79 | 1006.9 |
| 20260507115528 | 10 | 296 | 1.6 | 8.0 | 0.00 | 1.35 | 0.13 | 81 | 1006.8 |
| 20260507115030 | 9 | 277 | 0.0 | 6.4 | 0.00 | 1.35 | 0.13 | 81 | 1006.9 |
| 20260507114526 | 9 | 315 | 1.6 | 8.0 | 0.00 | 1.35 | 0.13 | 82 | 1006.7 |
| 20260507114026 | 9 | 279 | 1.6 | 9.7 | 0.00 | 1.35 | 0.13 | 85 | 1006.8 |
| 20260507113524 | 8 | 328 | 1.6 | 6.4 | 0.00 | 1.35 | 0.13 | 86 | 1006.9 |
| 20260507113024 | 8 | 306 | 3.2 | 6.4 | 0.00 | 1.35 | 0.13 | 89 | 1007.0 |
| 20260507112523 | 8 | 302 | 0.0 | 0.0 | 0.00 | 1.35 | 0.13 | 91 | 1007.0 |
| 20260507112022 | 8 | 281 | 0.0 | 0.0 | 0.00 | 1.35 | 0.13 | 93 | 1007.0 |
| 20260507111521 | 7 | 279 | 0.0 | 0.0 | 0.00 | 1.35 | 0.13 | 94 | 1007.0 |
| 20260507111020 | 7 | 272 | 0.0 | 0.0 | 0.00 | 1.35 | 0.13 | 94 | 1007.1 |
| 20260507110519 | 7 | 277 | 0.0 | 0.0 | 0.00 | 1.35 | 0.13 | 95 | 1007.0 |
| 20260507110020 | 7 | 276 | 0.0 | 0.0 | 0.00 | 1.35 | 0.13 | 95 | 1007.0 |
| 20260507105518 | 7 | 276 | 0.0 | 0.0 | 0.00 | 1.35 | 0.13 | 95 | 1007.2 |
| 20260507105018 | 7 | 276 | 0.0 | 0.0 | 0.00 | 1.35 | 0.13 | 95 | 1007.4 |
| 20260507104517 | 7 | 276 | 0.0 | 0.0 | 0.00 | 1.35 | 0.13 | 95 | 1007.2 |
| 20260507104017 | 7 | 276 | 0.0 | 0.0 | 0.00 | 1.35 | 0.13 | 95 | 1007.1 |
| 20260507103515 | 7 | 276 | 0.0 | 0.0 | 0.00 | 1.35 | 0.13 | 95 | 1007.2 |
| 20260507103026 | 7 | 276 | 0.0 | 0.0 | 0.00 | 1.35 | 0.13 | 95 | 1007.1 |
| 20260507102515 | 6 | 276 | 0.0 | 0.0 | 0.00 | 1.35 | 0.13 | 95 | 1007.1 |
| 20260507102015 | 6 | 264 | 0.0 | 0.0 | 0.00 | 1.35 | 0.13 | 95 | 1007.1 |
| 20260507101514 | 6 | 264 | 0.0 | 0.0 | 0.00 | 1.35 | 0.13 | 95 | 1007.2 |
| 20260507101013 | 6 | 264 | 0.0 | 0.0 | 0.00 | 1.35 | 0.13 | 95 | 1007.1 |
| 20260507100512 | 6 | 264 | 0.0 | 0.0 | 0.00 | 1.35 | 0.13 | 94 | 1007.3 |
| 20260507100011 | 6 | 264 | 0.0 | 0.0 | 0.00 | 1.35 | 0.13 | 94 | 1007.1 |
| 20260507095510 | 6 | 264 | 0.0 | 0.0 | 0.00 | 1.35 | 0.13 | 94 | 1007.0 |
| 20260507095009 | 6 | 264 | 0.0 | 0.0 | 0.00 | 1.35 | 0.13 | 94 | 1006.9 |
| 20260507094511 | 6 | 257 | 0.0 | 0.0 | 0.00 | 1.35 | 0.13 | 94 | 1006.6 |
| 20260507094007 | 6 | 257 | 0.0 | 0.0 | 0.00 | 1.35 | 0.13 | 94 | 1006.6 |
| 20260507093507 | 6 | 257 | 0.0 | 0.0 | 0.00 | 1.35 | 0.13 | 94 | 1006.4 |
| 20260507093006 | 6 | 257 | 0.0 | 0.0 | 0.00 | 1.35 | 0.13 | 94 | 1006.3 |
| 20260507092507 | 6 | 257 | 0.0 | 0.0 | 0.00 | 1.35 | 0.13 | 94 | 1006.6 |
| 20260507092005 | 6 | 205 | 0.0 | 0.0 | 0.00 | 1.35 | 0.13 | 94 | 1006.5 |
| 20260507091505 | 7 | 205 | 0.0 | 0.0 | 0.00 | 1.35 | 0.13 | 94 | 1006.6 |
| 20260507091004 | 7 | 205 | 0.0 | 0.0 | 0.00 | 1.35 | 0.13 | 94 | 1006.6 |
| 20260507090505 | 7 | 205 | 0.0 | 0.0 | 0.00 | 1.35 | 0.13 | 94 | 1006.8 |
| 20260507090005 | 7 | 211 | 0.0 | 0.0 | 0.00 | 1.35 | 0.13 | 94 | 1006.6 |
| 20260507085503 | 7 | 276 | 0.0 | 0.0 | 0.00 | 1.35 | 0.13 | 94 | 1006.4 |
| 20260507085003 | 7 | 276 | 0.0 | 0.0 | 0.00 | 1.35 | 0.13 | 94 | 1006.6 |
| 20260507084501 | 7 | 276 | 0.0 | 0.0 | 0.00 | 1.35 | 0.13 | 94 | 1006.8 |
| 20260507084001 | 7 | 276 | 0.0 | 0.0 | 0.00 | 1.35 | 0.13 | 94 | 1006.8 |
| 20260507083501 | 7 | 276 | 0.0 | 3.2 | 0.00 | 1.35 | 0.13 | 94 | 1006.7 |
| 20260507083102 | 7 | 250 | 0.0 | 3.2 | 0.00 | 1.35 | 0.13 | 94 | 1006.9 |
| 20260507082600 | 7 | 254 | 1.6 | 3.2 | 0.00 | 1.35 | 0.13 | 94 | 1006.7 |
| 20260507082104 | 7 | 243 | 0.0 | 3.2 | 0.00 | 1.35 | 0.13 | 93 | 1006.6 |
| 20260507081600 | 7 | 238 | 0.0 | 3.2 | 0.00 | 1.35 | 0.13 | 93 | 1006.6 |
| 20260507081059 | 7 | 241 | 0.0 | 3.2 | 0.00 | 1.35 | 0.13 | 93 | 1006.3 |
| 20260507080601 | 7 | 253 | 0.0 | 9.7 | 0.00 | 1.35 | 0.13 | 93 | 1006.2 |
| 20260507080114 | 7 | 49 | 0.0 | 9.7 | 0.00 | 1.35 | 0.13 | 93 | 1006.3 |
| 20260507075557 | 7 | 270 | 0.0 | 0.0 | 0.00 | 1.35 | 0.13 | 93 | 1006.4 |
| 20260507075056 | 7 | 296 | 0.0 | 6.4 | 0.00 | 1.35 | 0.13 | 93 | 1006.4 |
| 20260507074556 | 7 | 300 | 0.0 | 6.4 | 0.00 | 1.35 | 0.13 | 93 | 1006.3 |
| 20260507074055 | 7 | 335 | 0.0 | 6.4 | 0.00 | 1.35 | 0.13 | 93 | 1006.4 |
| 20260507073554 | 7 | 239 | 0.0 | 0.0 | 0.00 | 1.35 | 0.13 | 93 | 1006.4 |
| 20260507073053 | 7 | 301 | 0.0 | 0.0 | 0.00 | 1.35 | 0.13 | 93 | 1006.5 |
| 20260507072553 | 7 | 290 | 0.0 | 3.2 | 0.00 | 1.35 | 0.13 | 93 | 1006.5 |
| 20260507072052 | 8 | 253 | 0.0 | 6.4 | 0.00 | 1.35 | 0.13 | 93 | 1006.4 |
| 20260507071608 | 8 | 284 | 0.0 | 6.4 | 0.00 | 1.35 | 0.13 | 93 | 1006.6 |
| 20260507071049 | 8 | 291 | 0.0 | 3.2 | 0.00 | 1.35 | 0.13 | 94 | 1006.4 |
| 20260507070549 | 8 | 298 | 0.0 | 11.3 | 0.00 | 1.35 | 0.13 | 94 | 1006.3 |
| 20260507070049 | 8 | 277 | 1.6 | 11.3 | 0.00 | 1.35 | 0.13 | 94 | 1006.4 |
| 20260507065548 | 8 | 302 | 0.0 | 3.2 | 0.00 | 1.35 | 0.13 | 94 | 1005.9 |
| 20260507065048 | 8 | 320 | 0.0 | 9.7 | 0.00 | 1.35 | 0.13 | 93 | 1005.9 |
| 20260507064545 | 8 | 296 | 3.2 | 8.0 | 0.00 | 1.35 | 0.13 | 94 | 1005.9 |
| 20260507064044 | 8 | 256 | 1.6 | 3.2 | 0.00 | 1.35 | 0.13 | 94 | 1006.0 |
| 20260507063543 | 8 | 336 | 0.0 | 3.2 | 0.00 | 1.35 | 0.13 | 94 | 1005.9 |
| 20260507063045 | 8 | 336 | 0.0 | 3.2 | 0.00 | 1.35 | 0.13 | 94 | 1005.8 |
| 20260507062542 | 8 | 105 | 0.0 | 3.2 | 0.00 | 1.35 | 0.13 | 94 | 1005.7 |
| 20260507062041 | 8 | 321 | 0.0 | 3.2 | 0.00 | 1.35 | 0.13 | 94 | 1005.6 |
| 20260507061541 | 9 | 290 | 0.0 | 1.6 | 0.00 | 1.35 | 0.13 | 94 | 1005.7 |
| 20260507061040 | 9 | 280 | 0.0 | 3.2 | 0.00 | 1.35 | 0.13 | 94 | 1005.4 |
| 20260507060542 | 9 | 284 | 0.0 | 3.2 | 0.00 | 1.35 | 0.13 | 94 | 1005.5 |
| 20260507060044 | 9 | 305 | 0.0 | 3.2 | 0.00 | 1.35 | 0.13 | 94 | 1005.5 |
| 20260507055542 | 9 | 340 | 0.0 | 1.6 | 0.03 | 1.35 | 0.13 | 94 | 1005.2 |
| 20260507055038 | 9 | 340 | 0.0 | 3.2 | 0.03 | 1.35 | 0.13 | 94 | 1005.2 |
| 20260507054538 | 9 | 340 | 0.0 | 3.2 | 0.03 | 1.35 | 0.13 | 93 | 1005.4 |
| 20260507054037 | 9 | 340 | 0.0 | 3.2 | 0.03 | 1.35 | 0.13 | 93 | 1005.4 |
| 20260507053538 | 9 | 313 | 0.0 | 3.2 | 0.05 | 1.35 | 0.13 | 93 | 1005.3 |
| 20260507053105 | 9 | 262 | 0.0 | 3.2 | 0.05 | 1.35 | 0.13 | 93 | 1005.3 |
| 20260507052537 | 9 | 126 | 0.0 | 3.2 | 0.05 | 1.35 | 0.13 | 93 | 1004.9 |
| 20260507052035 | 9 | 43 | 0.0 | 3.2 | 0.05 | 1.35 | 0.13 | 93 | 1005.0 |
| 20260507051542 | 9 | 284 | 0.0 | 3.2 | 0.05 | 1.35 | 0.13 | 94 | 1005.1 |
| 20260507051033 | 10 | 350 | 0.0 | 3.2 | 0.05 | 1.35 | 0.13 | 94 | 1005.1 |
| 20260507050533 | 10 | 329 | 0.0 | 6.4 | 0.08 | 1.35 | 0.13 | 93 | 1005.1 |
| 20260507050036 | 10 | 305 | 1.6 | 6.4 | 0.13 | 1.35 | 0.13 | 94 | 1005.2 |
| 20260507045532 | 10 | 323 | 1.6 | 3.2 | 0.13 | 1.32 | 0.10 | 94 | 1005.4 |
| 20260507045032 | 10 | 292 | 0.0 | 3.2 | 0.13 | 1.32 | 0.10 | 93 | 1005.4 |
| 20260507044532 | 10 | 292 | 0.0 | 8.0 | 0.13 | 1.32 | 0.10 | 94 | 1005.4 |
| 20260507044029 | 10 | 293 | 1.6 | 8.0 | 0.13 | 1.32 | 0.10 | 94 | 1005.2 |
| 20260507043528 | 10 | 322 | 0.0 | 11.3 | 0.10 | 1.30 | 0.08 | 94 | 1005.2 |
| 20260507043028 | 10 | 324 | 1.6 | 11.3 | 0.10 | 1.30 | 0.08 | 93 | 1005.4 |
| 20260507042530 | 10 | 328 | 1.6 | 6.4 | 0.10 | 1.30 | 0.08 | 94 | 1005.4 |
| 20260507042026 | 10 | 281 | 1.6 | 11.3 | 0.10 | 1.30 | 0.08 | 94 | 1005.4 |
| 20260507041525 | 11 | 325 | 3.2 | 11.3 | 0.13 | 1.30 | 0.08 | 94 | 1005.4 |
| 20260507041024 | 11 | 340 | 1.6 | 9.7 | 0.15 | 1.30 | 0.08 | 94 | 1005.3 |
| 20260507040523 | 11 | 307 | 3.2 | 9.7 | 0.18 | 1.27 | 0.05 | 94 | 1005.2 |
| 20260507040027 | 11 | 241 | 3.2 | 8.0 | 0.18 | 1.22 | 0.00 | 94 | 1005.4 |
| 20260507035522 | 11 | 306 | 3.2 | 8.0 | 0.15 | 1.19 | 1.19 | 94 | 1005.4 |
| 20260507035022 | 11 | 326 | 1.6 | 6.4 | 0.18 | 1.19 | 1.19 | 94 | 1004.9 |
| 20260507034532 | 11 | 304 | 1.6 | 6.4 | 0.18 | 1.19 | 1.19 | 94 | 1004.9 |
| 20260507034021 | 11 | 307 | 0.0 | 6.4 | 0.20 | 1.19 | 1.19 | 94 | 1004.9 |
| 20260507033521 | 11 | 229 | 1.6 | 9.7 | 0.25 | 1.19 | 1.19 | 94 | 1004.9 |
| 20260507033034 | 11 | 331 | 1.6 | 11.3 | 0.25 | 1.19 | 1.19 | 93 | 1004.9 |
| 20260507032520 | 12 | 254 | 1.6 | 12.9 | 0.28 | 1.19 | 1.19 | 93 | 1004.7 |
| 20260507032021 | 12 | 288 | 3.2 | 12.9 | 0.28 | 1.19 | 1.19 | 94 | 1004.7 |
| 20260507031520 | 12 | 286 | 4.8 | 11.3 | 0.25 | 1.17 | 1.17 | 94 | 1004.6 |
| 20260507031121 | 12 | 296 | 1.6 | 11.3 | 0.23 | 1.14 | 1.14 | 94 | 1004.6 |
| 20260507030520 | 12 | 237 | 1.6 | 6.4 | 0.15 | 1.07 | 1.07 | 94 | 1004.6 |
| 20260507030025 | 13 | 288 | 1.6 | 8.0 | 0.13 | 1.04 | 1.04 | 94 | 1004.6 |
| 20260507025519 | 13 | 309 | 1.6 | 9.7 | 0.13 | 1.04 | 1.04 | 94 | 1004.4 |
| 20260507025020 | 13 | 306 | 0.0 | 9.7 | 0.10 | 1.02 | 1.02 | 94 | 1004.2 |
| 20260507024520 | 13 | 289 | 1.6 | 8.0 | 0.10 | 1.02 | 1.02 | 94 | 1004.3 |
| 20260507024019 | 14 | 291 | 1.6 | 6.4 | 0.05 | 0.97 | 0.97 | 95 | 1004.4 |
| 20260507023518 | 14 | 348 | 0.0 | 3.2 | 0.03 | 0.94 | 0.94 | 95 | 1004.1 |
| 20260507023025 | 14 | 305 | 1.6 | 3.2 | 0.00 | 0.91 | 0.91 | 95 | 1004.1 |
| 20260507022518 | 14 | 305 | 0.0 | 3.2 | 0.00 | 0.91 | 0.91 | 95 | 1004.1 |
| 20260507022018 | 14 | 315 | 0.0 | 3.2 | 0.00 | 0.91 | 0.91 | 95 | 1004.1 |
| 20260507021518 | 14 | 241 | 0.0 | 3.2 | 0.00 | 0.91 | 0.91 | 95 | 1004.0 |
| 20260507021019 | 14 | 251 | 0.0 | 3.2 | 0.00 | 0.91 | 0.91 | 95 | 1004.0 |
| 20260507020517 | 14 | 238 | 0.0 | 3.2 | 0.00 | 0.91 | 0.91 | 94 | 1003.9 |
| 20260507020021 | 14 | 278 | 0.0 | 0.0 | 0.00 | 0.91 | 0.91 | 94 | 1004.0 |
| 20260507015516 | 14 | 278 | 0.0 | 0.0 | 0.00 | 0.91 | 0.91 | 94 | 1004.0 |
| 20260507015023 | 14 | 278 | 0.0 | 3.2 | 0.00 | 0.91 | 0.91 | 94 | 1004.0 |
| 20260507014516 | 14 | 278 | 0.0 | 3.2 | 0.00 | 0.91 | 0.91 | 94 | 1004.1 |
| 20260507014014 | 14 | 278 | 0.0 | 6.4 | 0.00 | 0.91 | 0.91 | 94 | 1004.2 |
| 20260507013514 | 14 | 286 | 1.6 | 6.4 | 0.00 | 0.91 | 0.91 | 94 | 1004.2 |
| 20260507013015 | 14 | 257 | 1.6 | 6.4 | 0.00 | 0.91 | 0.91 | 94 | 1004.1 |
| 20260507012514 | 14 | 200 | 1.6 | 6.4 | 0.00 | 0.91 | 0.91 | 94 | 1004.1 |
| 20260507012015 | 14 | 217 | 1.6 | 9.7 | 0.00 | 0.91 | 0.91 | 94 | 1004.2 |
| 20260507011514 | 14 | 208 | 1.6 | 9.7 | 0.00 | 0.91 | 0.91 | 94 | 1004.1 |
| 20260507011014 | 14 | 215 | 3.2 | 12.9 | 0.00 | 0.91 | 0.91 | 94 | 1004.2 |
| 20260507010514 | 14 | 230 | 3.2 | 12.9 | 0.00 | 0.91 | 0.91 | 94 | 1004.2 |
| 20260507010022 | 14 | 204 | 6.4 | 12.9 | 0.00 | 0.91 | 0.91 | 94 | 1004.2 |
| 20260507005512 | 14 | 205 | 6.4 | 11.3 | 0.00 | 0.91 | 0.91 | 94 | 1004.2 |
| 20260507005013 | 14 | 200 | 3.2 | 11.3 | 0.00 | 0.91 | 0.91 | 94 | 1004.2 |
| 20260507004514 | 14 | 204 | 6.4 | 12.9 | 0.00 | 0.91 | 0.91 | 94 | 1004.3 |
| 20260507004012 | 14 | 188 | 6.4 | 14.5 | 0.00 | 0.91 | 0.91 | 94 | 1004.2 |
| 20260507003513 | 14 | 225 | 6.4 | 16.1 | 0.00 | 0.91 | 0.91 | 94 | 1004.1 |
| 20260507003011 | 14 | 200 | 6.4 | 16.1 | 0.00 | 0.91 | 0.91 | 94 | 1004.2 |
| 20260507002513 | 14 | 203 | 4.8 | 9.7 | 0.00 | 0.91 | 0.91 | 94 | 1004.2 |
| 20260507002011 | 14 | 170 | 3.2 | 9.7 | 0.00 | 0.91 | 0.91 | 94 | 1004.2 |
| 20260507001511 | 14 | 223 | 3.2 | 16.1 | 0.00 | 0.91 | 0.91 | 94 | 1004.2 |
| 20260507001012 | 14 | 207 | 8.0 | 16.1 | 0.00 | 0.91 | 0.91 | 94 | 1004.2 |
| 20260507000511 | 14 | 123 | 6.4 | 11.3 | 0.00 | 0.91 | 0.91 | 94 | 1004.1 |
| 20260507000015 | 14 | 160 | 3.2 | 11.3 | 0.00 | 0.94 | 0.91 | 94 | 1004.1 |
| 20260506235509 | 14 | 195 | 6.4 | 11.3 | 0.00 | 0.94 | 0.91 | 94 | 1004.1 |
| 20260506235009 | 14 | 200 | 3.2 | 8.0 | 0.00 | 0.94 | 0.91 | 94 | 1004.0 |
| 20260506234510 | 14 | 184 | 1.6 | 12.9 | 0.00 | 0.94 | 0.91 | 94 | 1004.0 |
| 20260506234009 | 14 | 188 | 3.2 | 14.5 | 0.00 | 0.94 | 0.91 | 94 | 1004.0 |
| 20260506233509 | 14 | 142 | 4.8 | 14.5 | 0.00 | 0.94 | 0.91 | 94 | 1004.0 |
| 20260506233009 | 14 | 136 | 6.4 | 16.1 | 0.00 | 0.94 | 0.91 | 95 | 1004.2 |
| 20260506232508 | 14 | 138 | 4.8 | 14.5 | 0.00 | 0.94 | 0.91 | 95 | 1004.1 |
| 20260506232009 | 14 | 144 | 1.6 | 9.7 | 0.03 | 0.94 | 0.91 | 95 | 1004.0 |
| 20260506231507 | 14 | 202 | 1.6 | 9.7 | 0.03 | 0.94 | 0.91 | 95 | 1004.1 |
| 20260506231007 | 14 | 77 | 1.6 | 14.5 | 0.03 | 0.94 | 0.91 | 95 | 1004.2 |
| 20260506230507 | 14 | 223 | 1.6 | 14.5 | 0.05 | 0.94 | 0.91 | 95 | 1004.2 |
| 20260506230007 | 14 | 128 | 3.2 | 19.3 | 0.05 | 1.07 | 0.91 | 95 | 1004.3 |
| 20260506225507 | 14 | 152 | 1.6 | 8.0 | 0.08 | 1.07 | 0.91 | 95 | 1004.3 |
| 20260506225005 | 14 | 135 | 0.0 | 17.7 | 0.08 | 1.07 | 0.91 | 95 | 1004.4 |
| 20260506224504 | 14 | 164 | 3.2 | 17.7 | 0.08 | 1.07 | 0.91 | 95 | 1004.3 |